Hourly Weather Roundup
Issued by NWS Central Illinois

Home | Current Version | Previous Version | Text Only | Print | Product List | Glossary On
Versions: 1 2 3 4 5 6 7 8 9 10 11 12 13 14 15 16 17 18 19 20 21 22 23 24 25 26 27 28 29 30 31 32 33 34 35 36 37 38 39 40 41 42 43 44 45 46 47 48 49 50
000
NZUS43 KILX 302210
HWRILX

AREA WEATHER ROUNDUP
NATIONAL WEATHER SERVICE, LINCOLN IL
500 PM CDT TUE JUN 30 2015


CITY           SKY/WX    TMP DP  RH WIND       PRES   REMARKS
BLOOMINGTON    MOSUNNY   82  65  56 NW10      29.85S HX  84
CHAMPAIGN      MOSUNNY   81  66  60 NW9       29.82F HX  83
DANVILLE       MOSUNNY   79  65  62 NW8G16    29.79S HAZE    HX  81
DECATUR        PTSUNNY   81  69  67 NW8       29.82S HX  84
EFFINGHAM      SUNNY     82  63  51 SW12      29.84S HX  83
FLORA          SUNNY     82  65  57 W10       29.84F HX  83
GALESBURG      SUNNY     80  64  57 NW7       29.85S HX  81
JACKSONVILLE   SUNNY     82  70  66 W8        29.85S HX  86
LACON          SUNNY     79  62  56 N7        29.83S HX  80
LAWRENCEVILLE  SUNNY     83  68  60 W16       29.82F HX  86
LITCHFIELD     MOSUNNY   80  68  65 W10       29.85F HX  83
$$


CITY           SKY/WX    TMP DP  RH WIND       PRES   REMARKS
LINCOLN        SUNNY     82  65  55 NW5       29.83S HX  84
MACOMB         PTSUNNY   80  67  64 N6        29.87S HX  82
MATTOON        MOSUNNY   81  66  60 W9G20     29.81F HX  83
MT CARMEL AP   SUNNY     84  66  54 W13       29.83S HX  86
OLNEY-NOBLE AP SUNNY     81  66  61 W9        29.83F HX  83
PARIS          MOSUNNY   82  69  65 NW10      29.81F HX  85
PEORIA         SUNNY     82  63  52 NW8       29.84S HX  83
PONTIAC        MOSUNNY   79  66  63 NW8       29.84S HX  81
RANTOUL        SUNNY     81  67  61 NW12G20   29.83S HX  84
ROBINSON       MOSUNNY   81  67  62 W6        29.82F HX  83
SPRINGFIELD    MOSUNNY   84  68  58 NW9       29.84S HX  87
TAYLORVILLE    MOSUNNY   79  68  69 W12       29.84S HX  81
$$

...REGIONAL REPORTS...


CITY           SKY/WX    TMP DP  RH WIND       PRES   REMARKS
CHICAGO O`HARE MOSUNNY   71  60  68 NE14      29.83R
KANKAKEE       PTSUNNY   78  65  62 W13       29.82S HX  80
MOLINE         SUNNY     81  61  50 NW9       29.84S HX  82
MOUNT STERLING NOT AVBL
MOUNT VERNON   SUNNY     82  64  54 W7        29.86F HX  84
PITTSFIELD     MOSUNNY   82  66  59 W8        29.88S HX  84
QUINCY         MOSUNNY   81  67  62 NW9       29.87S HX  83
ROCKFORD       MOSUNNY   76  59  55 NW8       29.86S
$$


CITY           SKY/WX    TMP DP  RH WIND       PRES   REMARKS
BURLINGTON     MOSUNNY   81  66  60 NW6       29.86R HX  83
CEDAR RAPIDS   MOSUNNY   79  63  57 VRB6      29.86S HX  80
DES MOINES     CLOUDY    81  63  54 NW6       29.89S HX  82
KIRKSVILLE     MOSUNNY   79  67  66 W6        29.90F HX  81
OTTUMWA        CLOUDY    77  68  73 W5        29.87S
ST LOUIS       MOSUNNY   85  67  54 W12       29.86F HX  87
$$


CITY           SKY/WX    TMP DP  RH WIND       PRES   REMARKS
TERRE HAUTE    PTSUNNY   80  67  64 W9        29.79F HX  82
EVANSVILLE     SUNNY     83  67  58 W13       29.85S HX  85
INDIANAPOLIS   PTSUNNY   80  65  59 W17       29.79S THUNDER HX  82
LAFAYETTE      SUNNY     79  63  57 NW9       29.79S HX  80
MADISON        PTSUNNY   76  57  51 NW10      29.84S
MILWAUKEE      MOSUNNY   63  56  78 NE13      29.85R
$$




USA.gov is the U.S. government's official web portal to all federal, state and local government web resources and services.